Time,TemperatureF,DewpointF,PressureIn,WindDirection,WindDirectionDegrees,WindSpeedMPH,WindSpeedGustMPH,Humidity,HourlyPrecipIn,Conditions,Clouds,dailyrainin,SoftwareType,DateUTC
2017-10-20 00:03:00,49.2,48.0,29.65,NE,42,7.0,9.0,95,0.00,,,0.00,weatherlink.com 1.10,2017-10-20 07:03:00,
2017-10-20 00:18:00,49.2,48.0,29.65,East,83,5.0,9.0,95,0.05,,,0.05,weatherlink.com 1.10,2017-10-20 07:18:00,
2017-10-20 00:33:00,49.3,48.0,29.66,NE,41,5.0,9.0,95,0.19,,,0.19,weatherlink.com 1.10,2017-10-20 07:33:00,
2017-10-20 00:48:00,49.3,48.0,29.64,ESE,110,7.0,12.0,95,0.26,,,0.26,weatherlink.com 1.10,2017-10-20 07:48:00,
2017-10-20 01:03:00,49.4,48.0,29.70,SSE,147,2.0,12.0,95,0.40,,,0.40,weatherlink.com 1.10,2017-10-20 08:03:00,
2017-10-20 01:18:00,46.4,45.0,29.69,East,94,6.0,6.0,94,0.50,,,0.55,weatherlink.com 1.10,2017-10-20 08:18:00,
2017-10-20 01:33:00,45.5,44.0,29.72,SE,146,0.0,7.0,95,0.46,,,0.66,weatherlink.com 1.10,2017-10-20 08:33:00,
2017-10-20 01:48:00,43.7,42.0,29.74,ESE,102,0.0,8.0,94,0.49,,,0.75,weatherlink.com 1.10,2017-10-20 08:48:00,
2017-10-20 02:03:00,43.3,42.0,29.73,SE,126,0.0,0.0,94,0.37,,,0.80,weatherlink.com 1.10,2017-10-20 09:03:00,
2017-10-20 02:18:00,43.3,42.0,29.73,SE,126,0.0,0.0,95,0.27,,,0.82,weatherlink.com 1.10,2017-10-20 09:18:00,
2017-10-20 02:34:00,43.3,42.0,29.75,SE,126,0.0,0.0,95,0.16,,,0.82,weatherlink.com 1.10,2017-10-20 09:34:00,
2017-10-20 02:49:00,43.3,42.0,29.76,SE,126,0.0,0.0,95,0.07,,,0.82,weatherlink.com 1.10,2017-10-20 09:49:00,
2017-10-20 03:03:00,43.3,42.0,29.76,SE,126,0.0,0.0,95,0.02,,,0.82,weatherlink.com 1.10,2017-10-20 10:03:00,
2017-10-20 03:19:00,43.3,42.0,29.77,SE,126,0.0,0.0,95,0.01,,,0.83,weatherlink.com 1.10,2017-10-20 10:19:00,
2017-10-20 03:49:00,42.5,41.0,29.80,SE,126,0.0,0.0,95,0.01,,,0.83,weatherlink.com 1.10,2017-10-20 10:49:00,
2017-10-20 04:04:00,42.0,41.0,29.81,SE,126,0.0,0.0,95,0.01,,,0.83,weatherlink.com 1.10,2017-10-20 11:04:00,
2017-10-20 04:19:00,41.8,41.0,29.83,SE,126,0.0,0.0,95,0.00,,,0.83,weatherlink.com 1.10,2017-10-20 11:19:00,
2017-10-20 04:34:00,41.6,40.0,29.83,SE,126,0.0,0.0,95,0.00,,,0.83,weatherlink.com 1.10,2017-10-20 11:34:00,
2017-10-20 04:49:00,41.7,40.0,29.84,SE,126,0.0,0.0,95,0.00,,,0.83,weatherlink.com 1.10,2017-10-20 11:49:00,
2017-10-20 05:04:00,41.5,40.0,29.85,SE,126,0.0,0.0,95,0.00,,,0.83,weatherlink.com 1.10,2017-10-20 12:04:00,
2017-10-20 05:19:00,41.4,40.0,29.87,SE,126,0.0,0.0,95,0.00,,,0.83,weatherlink.com 1.10,2017-10-20 12:19:00,
2017-10-20 05:34:00,41.6,40.0,29.87,SE,126,0.0,0.0,95,0.00,,,0.83,weatherlink.com 1.10,2017-10-20 12:34:00,
2017-10-20 05:49:00,42.0,41.0,29.88,SE,126,0.0,0.0,95,0.00,,,0.83,weatherlink.com 1.10,2017-10-20 12:49:00,
2017-10-20 06:04:00,42.1,41.0,29.89,SE,126,0.0,0.0,95,0.00,,,0.83,weatherlink.com 1.10,2017-10-20 13:04:00,
2017-10-20 06:19:00,41.9,41.0,29.89,SE,126,0.0,0.0,95,0.00,,,0.83,weatherlink.com 1.10,2017-10-20 13:19:00,
2017-10-20 06:34:00,41.7,40.0,29.90,ESE,111,0.0,0.0,95,0.00,,,0.83,weatherlink.com 1.10,2017-10-20 13:34:00,
2017-10-20 06:49:00,41.5,40.0,29.90,ESE,111,0.0,0.0,95,0.00,,,0.83,weatherlink.com 1.10,2017-10-20 13:49:00,
2017-10-20 07:04:00,40.9,40.0,29.90,ESE,111,0.0,0.0,95,0.00,,,0.83,weatherlink.com 1.10,2017-10-20 14:04:00,
2017-10-20 07:19:00,40.6,39.0,29.91,ESE,111,0.0,0.0,95,0.00,,,0.83,weatherlink.com 1.10,2017-10-20 14:19:00,
2017-10-20 07:34:00,40.3,39.0,29.91,ESE,111,0.0,0.0,95,0.00,,,0.83,weatherlink.com 1.10,2017-10-20 14:34:00,
2017-10-20 07:49:00,40.3,39.0,29.91,East,86,0.0,0.0,95,0.00,,,0.83,weatherlink.com 1.10,2017-10-20 14:49:00,
2017-10-20 08:05:00,40.4,39.0,29.92,East,86,0.0,0.0,95,0.00,,,0.83,weatherlink.com 1.10,2017-10-20 15:05:00,
2017-10-20 08:19:00,41.1,40.0,29.93,East,86,0.0,0.0,95,0.00,,,0.83,weatherlink.com 1.10,2017-10-20 15:19:00,